EHI
0 0 0 0 0 0 0 0 0 0 0 0 1 4 9 12 12 10 9 11 14 18 24 30 33 33 35 39 41 39 35 32 28 21 13 9 8 8 7 4 1 0 0 0
0 0 0 0 0 0 0 0 0 0 0 0 1 4 8 12 14 12 10 10 13 18 25 31 34 36 39 42 43 41 37 34 29 23 16 11 9 8 6 3 1 0 0 0
0 0 0 0 0 0 0 0 0 0 0 0 0 2 6 11 14 14 11 11 13 19 26 31 33 37 41 43 41 38 36 33 28 24 17 13 11 9 6 3 1 0 0 0
0 0 0 0 0 0 0 0 0 0 0 0 0 1 4 8 12 14 14 15 19 22 27 31 33 37 38 36 35 36 34 31 26 21 16 13 12 8 5 3 2 1 1 1
0 0 0 0 0 0 0 0 0 0 0 0 0 1 3 6 9 12 15 19 25 28 30 33 35 37 35 30 31 35 35 31 26 21 18 15 11 8 6 5 4 2 2 3
0 0 0 0 0 0 0 0 0 0 0 0 0 0 2 4 7 10 14 19 25 29 31 33 36 37 34 30 29 31 33 31 27 22 20 18 14 11 10 9 8 6 4 5
0 0 0 0 0 0 0 0 0 0 0 0 0 1 3 5 7 10 13 17 22 24 26 31 35 37 35 31 28 27 29 29 26 23 22 22 20 17 14 13 11 8 6 4
0 0 0 0 0 0 0 0 0 0 0 0 0 1 4 6 7 10 13 16 19 21 23 27 31 32 32 31 28 26 26 26 25 23 22 24 23 19 16 13 10 8 6 3
0 0 0 0 0 0 0 0 0 0 0 0 0 1 4 7 9 13 15 17 21 23 23 25 26 25 26 28 28 25 25 26 25 23 22 22 21 18 14 10 7 6 5 3
0 0 0 0 0 0 0 0 0 0 0 0 0 0 2 7 13 17 19 20 22 24 25 27 27 24 22 24 25 23 24 26 25 21 19 19 18 16 12 9 7 6 5 5
0 0 0 0 0 0 0 0 0 0 0 0 0 0 2 6 14 21 23 23 23 24 26 30 32 30 26 25 25 24 26 25 22 18 16 15 14 13 10 8 6 6 6 6
0 0 0 0 0 0 0 0 0 0 0 0 1 1 3 8 16 23 26 26 26 26 29 34 38 38 35 32 30 28 28 25 22 19 17 14 11 9 7 5 4 4 6 7
0 0 0 0 0 0 0 0 0 0 0 0 1 2 5 12 21 26 29 29 29 31 36 42 47 46 42 39 37 34 30 28 26 23 20 15 11 8 6 4 4 5 6 7
0 0 0 0 0 0 0 0 0 0 0 0 0 1 6 14 23 29 32 31 32 36 42 49 52 51 47 45 43 38 33 30 28 25 22 19 16 12 9 7 8 9 8 6
0 0 0 0 0 0 0 0 0 0 0 0 0 2 6 14 22 30 33 33 34 38 44 48 51 51 50 49 47 40 34 32 30 27 24 22 21 17 13 12 13 13 9 5
0 0 0 0 0 0 0 0 0 0 0 0 1 3 7 14 22 29 33 34 35 38 42 45 48 49 50 50 46 40 36 33 32 30 28 26 24 20 17 14 13 12 9 6
0 0 0 0 0 0 1 1 1 0 0 1 3 6 9 16 23 28 32 34 35 38 41 44 45 47 48 45 42 39 37 34 32 30 28 26 24 21 18 15 12 9 9 9
0 0 0 0 0 0 1 1 1 0 1 4 8 10 13 18 22 26 30 34 36 38 41 42 43 45 44 42 39 38 35 31 28 28 26 22 20 19 18 15 11 8 8 9
0 0 0 0 0 0 0 0 0 1 3 6 10 12 13 15 20 27 34 38 39 40 42 43 43 46 46 43 41 38 34 29 27 26 24 20 18 18 20 17 12 10 8 7
0 0 0 0 0 0 0 0 0 1 4 8 12 14 14 15 23 35 42 44 45 44 43 44 45 48 49 47 43 39 35 29 26 24 23 21 20 20 20 17 13 10 9 8
0 0 0 0 0 0 0 1 4 9 15 18 20 22 24 28 37 42 44 47 48 45 42 42 44 48 49 47 43 40 35 28 24 22 22 23 22 20 18 15 12 10 9 8
2 1 1 0 1 2 6 12 21 30 35 34 34 35 37 40 44 42 40 43 44 42 41 41 45 47 46 43 41 38 32 25 20 20 21 22 21 18 15 12 10 8 7 5
6 6 5 5 6 11 20 33 42 47 48 46 44 42 41 42 41 40 38 38 38 38 38 38 41 43 39 36 34 32 27 21 18 17 18 18 17 15 13 11 8 6 4 4
11 13 15 16 17 22 33 45 50 50 50 48 43 38 36 38 40 41 39 35 34 34 31 29 32 33 32 29 27 25 22 19 17 16 16 16 13 11 10 9 6 4 3 3
14 19 24 26 29 33 40 47 48 47 47 44 38 31 30 33 36 39 37 33 31 29 24 21 24 27 27 25 22 21 18 16 16 15 15 15 12 9 7 6 4 3 3 3
16 21 26 30 35 40 45 48 47 45 43 40 35 28 27 28 31 34 34 30 27 25 21 18 22 25 25 22 19 18 16 15 15 14 15 15 12 8 6 4 3 2 2 2
Wind_Speed
4 8 7 4 2 2 1 2 1 3 1 2 1 2 3 5 5 6 6 6 6 5 6 6 7 7 7 7 7 7 6 6 6 5 5 4 4 4 4 4 5 5 5 5
8 8 2 2 2 4 5 4 2 3 2 2 1 1 3 4 4 4 5 5 5 6 6 6 7 7 8 7 7 7 7 7 7 5 4 3 2 3 4 4 4 5 6 6
10 4 4 5 6 6 6 5 1 1 3 4 4 5 5 5 4 4 4 4 5 5 6 7 7 7 7 7 7 6 6 6 7 6 4 3 3 3 4 4 4 6 6 6
8 5 5 7 7 7 5 1 2 3 6 1 4 1 6 4 5 5 5 5 5 5 5 6 6 6 7 7 7 6 6 7 6 6 5 5 4 4 4 3 3 4 5 6
7 7 8 8 6 6 1 2 3 4 4 4 2 4 6 4 3 4 5 5 5 6 6 6 5 5 5 6 6 6 6 6 6 6 6 6 5 4 3 4 4 4 4 5
5 5 6 5 4 4 5 5 5 6 7 4 1 4 3 4 2 3 5 5 6 6 6 6 5 5 5 5 5 6 6 6 6 6 6 6 5 4 4 4 4 4 3 4
9 9 6 6 8 8 8 7 6 7 6 2 2 4 3 5 2 2 4 5 6 6 7 7 6 6 5 5 5 5 6 6 5 5 5 5 5 4 4 4 4 4 3 3
12 12 11 9 9 8 9 10 7 5 3 3 5 2 4 3 3 3 5 6 6 6 6 7 6 6 5 5 5 5 5 5 5 5 5 4 4 4 3 3 3 3 3 3
10 9 8 6 5 7 9 9 6 6 4 4 3 3 5 5 5 6 6 7 7 6 6 6 6 6 6 5 4 4 5 4 4 5 5 4 4 3 2 2 3 2 2 3
5 7 9 8 7 2 5 6 5 7 5 6 4 4 3 5 4 5 6 6 6 6 7 6 6 5 5 5 4 4 4 4 4 4 4 3 3 3 2 2 2 2 2 2
8 8 9 11 11 11 8 7 7 6 5 6 3 3 4 4 4 4 5 6 6 6 7 7 6 5 5 5 5 5 5 4 4 3 3 3 3 3 2 2 1 2 1 1
10 8 8 10 5 4 10 9 9 7 5 6 6 3 6 3 3 3 5 6 6 6 7 7 7 6 5 5 5 5 5 5 4 4 4 3 2 2 2 2 1 1 1 1
9 8 9 10 9 8 9 9 9 8 5 6 7 4 7 4 4 4 5 6 7 7 7 7 7 6 5 5 5 5 5 5 5 5 4 4 3 3 2 1 1 1 0 0
9 9 11 11 9 13 12 10 10 11 8 7 6 2 4 3 3 4 5 6 7 7 7 7 6 6 5 5 5 5 5 4 4 5 4 4 3 3 2 2 2 2 1 1
9 10 10 6 2 8 11 12 12 12 10 8 5 5 2 2 3 4 4 6 7 7 7 7 7 6 6 6 5 5 4 4 4 4 4 3 3 3 3 2 2 2 2 1
8 9 10 9 7 7 9 10 12 11 9 8 6 3 1 2 3 4 5 5 6 6 6 6 7 7 6 6 5 5 4 4 4 4 3 3 3 3 3 3 2 2 2 2
9 8 10 11 10 9 12 11 11 9 7 7 6 2 2 2 3 3 4 4 5 4 5 6 6 6 5 5 5 5 5 4 4 3 3 3 3 3 3 3 3 3 3 3
10 10 8 9 9 14 5 4 6 7 5 4 2 1 1 2 3 4 2 3 4 4 4 5 5 6 5 5 5 5 5 5 4 4 3 3 3 3 3 3 3 3 2 2
9 10 9 9 12 10 6 6 7 7 5 3 3 2 3 4 5 6 4 3 3 3 4 4 5 6 6 6 6 5 5 4 4 4 3 3 3 3 4 3 4 3 3 2
7 8 10 9 12 12 8 8 4 6 6 4 4 4 4 4 4 5 5 4 4 4 4 4 5 6 6 5 6 5 5 4 3 3 3 3 3 3 3 3 3 3 3 3
11 10 13 11 10 6 6 8 7 9 4 5 4 4 3 2 5 7 5 5 5 5 5 5 6 6 5 5 5 5 4 3 2 2 2 3 3 3 3 3 3 3 3 3
10 11 11 11 11 6 7 8 5 4 6 5 5 5 5 7 7 7 6 6 5 5 6 6 5 6 5 5 4 4 3 3 3 3 2 2 3 3 3 4 4 4 4 4
3 2 3 2 1 6 4 3 5 4 6 6 5 6 7 8 7 7 6 6 6 6 6 5 6 6 5 4 3 3 3 3 3 3 3 2 2 2 3 3 4 4 3 3
4 0 2 4 6 6 5 5 5 5 6 6 6 7 7 8 7 7 6 5 5 6 5 5 5 5 5 4 3 3 3 3 3 3 2 2 2 3 3 3 2 2 2 2
3 4 4 5 7 7 6 5 6 7 7 7 7 7 7 8 7 6 5 5 5 5 4 5 4 5 4 4 3 3 3 3 2 2 2 2 2 3 3 3 2 2 2 1
1 1 2 3 6 5 7 6 7 8 8 7 7 7 7 6 7 6 5 5 4 4 4 4 4 4 4 3 3 2 2 2 2 2 2 2 2 2 3 4 4 7 5 6
Wind_Direction
209 222 211 200 235 311 272 248 145 78 62 260 192 127 138 156 170 170 175 172 174 177 166 169 177 179 178 179 185 189 188 183 192 192 195 197 208 217 219 219 212 213 220 212
201 210 174 141 181 213 224 229 176 127 91 275 232 151 134 156 174 181 182 178 179 171 163 165 175 180 183 182 186 188 190 188 198 193 191 198 208 221 222 227 214 218 216 215
219 143 147 191 193 210 218 245 239 135 171 201 247 182 154 149 165 174 184 178 173 171 165 165 175 179 180 183 187 191 190 190 198 193 191 194 198 221 217 211 212 218 220 219
218 163 187 204 206 230 204 212 244 219 241 163 285 268 132 145 161 167 173 173 169 164 158 157 167 176 181 181 182 186 185 188 191 191 200 206 213 215 219 219 213 213 222 224
190 189 199 210 208 234 119 133 211 230 246 253 229 284 113 144 142 140 154 163 159 156 155 157 161 168 175 175 177 178 181 186 189 194 201 214 222 222 217 218 214 226 217 221
187 188 222 214 174 191 154 173 181 223 239 235 29 289 110 96 80 113 129 143 151 152 154 154 154 156 163 167 173 175 179 186 189 196 202 215 221 228 228 226 228 223 216 220
195 196 193 200 184 178 205 216 213 214 218 177 111 266 67 68 77 102 124 134 145 151 153 154 158 159 163 170 172 173 178 185 188 195 204 212 218 224 230 238 232 238 234 226
196 193 189 198 217 201 212 233 248 260 241 158 173 236 84 90 114 132 130 130 138 145 150 152 156 159 162 167 171 172 173 178 184 191 199 207 214 225 229 237 257 239 242 245
205 188 164 189 217 230 203 229 261 258 265 256 165 145 136 138 144 145 140 137 137 139 145 150 155 157 160 164 168 174 169 173 184 190 190 195 203 227 240 235 242 249 251 241
219 196 169 165 178 185 261 214 219 248 248 243 196 201 154 155 156 155 153 147 139 144 148 149 150 156 157 157 155 164 167 172 182 189 195 182 188 196 219 244 254 265 258 256
222 212 173 182 205 187 184 203 223 238 259 266 226 144 87 149 151 156 157 152 148 150 148 147 145 146 152 154 154 161 159 162 172 180 182 178 180 180 196 222 241 253 267 247
209 224 197 189 174 253 215 210 207 222 220 257 276 109 100 128 132 144 147 147 148 147 143 143 141 141 145 148 151 152 161 164 168 168 170 168 172 175 194 200 216 241 257 235
185 211 197 185 184 192 209 211 219 234 222 239 251 131 113 132 141 141 142 146 150 152 149 144 143 145 143 140 141 146 159 161 164 163 165 166 172 173 186 189 162 120 99 131
202 218 230 221 202 186 195 198 210 224 227 227 246 244 143 156 155 145 144 151 152 155 154 153 152 150 145 140 141 147 153 153 157 158 158 161 169 172 176 162 146 139 120 95
214 215 223 242 202 196 201 199 202 222 245 252 233 238 227 157 147 144 149 153 155 157 158 159 158 153 153 150 149 148 149 151 153 154 151 152 155 162 165 152 148 139 129 129
216 223 207 211 202 207 210 205 205 218 233 243 248 235 90 112 130 143 151 157 160 161 161 160 159 158 159 159 156 153 151 150 155 157 151 144 145 146 145 142 140 134 127 124
196 209 211 207 196 208 212 207 207 208 218 235 238 220 134 148 143 150 152 155 158 160 157 161 160 160 161 159 156 156 153 148 151 147 139 139 139 133 136 139 139 133 125 117
204 209 216 207 192 221 190 173 211 209 208 224 229 167 143 110 113 108 109 134 144 152 158 158 155 154 155 152 147 145 142 143 144 143 146 153 155 145 139 145 140 137 127 115
211 206 217 214 210 208 165 176 194 201 200 196 197 166 128 125 149 122 89 104 126 136 144 143 145 140 134 133 134 138 141 145 148 151 156 161 170 168 152 147 146 139 133 123
188 215 221 216 226 216 182 151 177 208 194 151 165 154 148 170 205 108 88 90 94 103 114 119 121 121 121 126 134 139 141 144 151 156 162 159 167 165 156 146 143 136 140 137
181 198 217 215 221 209 117 142 180 213 138 122 143 144 158 122 46 91 100 88 87 92 102 111 113 109 110 119 128 131 131 137 137 141 143 144 151 156 150 136 140 143 137 125
198 194 206 217 222 181 130 172 196 75 91 121 126 123 109 97 99 104 99 92 89 91 97 105 107 104 103 110 118 118 114 113 126 140 145 146 149 153 136 139 142 143 141 142
236 277 212 234 118 83 121 101 84 104 115 119 118 112 119 119 113 105 97 90 83 81 84 89 96 97 92 89 96 101 93 102 120 130 133 134 137 128 131 143 143 147 157 165
140 263 160 131 112 117 116 111 112 115 117 119 118 119 121 117 111 104 96 90 85 81 85 90 92 91 84 77 75 78 83 95 109 115 122 129 134 126 124 135 141 147 161 178
127 178 163 136 127 129 115 103 109 114 118 118 114 112 111 114 112 107 100 90 81 77 81 84 91 92 88 82 79 80 90 109 114 124 140 149 144 135 131 114 78 116 81 34
155 203 210 135 145 139 124 119 119 118 114 110 110 108 105 107 110 107 99 92 89 86 87 91 93 92 87 85 82 79 90 111 129 142 150 144 139 141 141 133 107 58 64 64